Weather in Solovatovo

Russia / Kostroma Oblast     57°34′25″N   43°26′50″E
temp.,
°C
wind,
m/s
gust,
m/s
humid.,
%
clouds,
%
prec.,
mm/h
press.,
hPa
HPBL,
m
22 january, sat
sat2200:00−8se51291100 0.3 1008690
03:00−8se4119499 0.6 1009586
06:00−9se4109399 0.2 1011467
09:00−10ese4109489 0.3 1013338
12:00−8ese4993100 0.0 1015413
15:00−8ese3993100 0.1 1016369
18:00−11e399687 0.0 1018236
21:00−13ene2698100 0.0 101998
23 january, sun
sun2300:00−11ene1397100 0.1 102077
03:00−11ene119882 0.3 102120
06:00−16se1110096 0.0 10239
09:00−16s119990 0.1 102618
12:00−9sw119490 0.1 1028132
15:00−10sw119867 0.1 103010
18:00−18wsw1110081 0.0 10339
21:00−20ssw1110098 0.0 10359
24 january, mon
mon2400:00−21nnw00100100 0.0 10379
03:00−22se1110099 0.0 10379
06:00−23nnw11100100 0.0 10399
09:00−22se1110095 0.1 104010
12:00−11sw119473 0.0 103996
15:00−11w119754 0.0 103810
18:00−18sse1110075 0.0 10389
21:00−20s11100100 0.0 103710
25 january, tue
tue2500:00−21s11100100 0.0 10369
03:00−12s1599100 0.1 1034115
06:00−8s259694 0.1 1031200
09:00−17sse259963 0.1 103073
12:00−11s369260 0.0 1028211
15:00−10s27925 0.0 1026272
18:00−14sse299660 0.0 1024148
21:00−15sse289742 0.0 1024137
26 january, wed
wed2600:00−15sse269888 0.0 1023108
03:00−12sse289679 0.1 1022200
06:00−13sse279778 0.1 1021162
09:00−12sse2897100 0.1 1022200
12:00−8s2593100 0.1 1021280
15:00−6se2596100 0.3 1021303
18:00−6se279694 0.5 1020325
21:00−9se2797100 0.6 1020153